Regional Weather Roundup
Issued by NWS

Home | Current Version | Previous Version | Text Only | Print | Product List | Glossary Off
Versions: 1 2 3 4 5 6 7 8 9 10 11 12 13 14 15 16 17 18 19 20 21 22 23 24 25 26 27 28 29 30 31 32 33 34 35 36 37 38 39 40 41 42 43 44 45 46 47 48 49 50

000
ASUS43 KIND 290709
RWRIN

WEATHER ROUNDUP FOR INDIANA
NATIONAL WEATHER SERVICE INDIANAPOLIS IN
300 AM EDT FRI APR 29 2016

NOTE: "FAIR" INDICATES FEW OR NO CLOUDS BELOW 12,000 FEET WITH NO
SIGNIFICANT WEATHER AND/OR OBSTRUCTIONS TO VISIBILITY.

* - STATION DOES NOT REPORT WEATHER SUCH AS PRECIPITATION OR FOG.

+ - STATION NOT QUALITY CONTROLLED BY THE NATIONAL WEATHER SERVICE.
    USE DATA WITH CAUTION...ESPECIALLY DEWPOINT AND RELATIVE
    HUMIDITY OBSERVATIONS.

INZ001>003-010>013-019-020-290800-
NORTHWEST INDIANA

CITY           SKY/WX    TMP DP  RH WIND       PRES   REMARKS
GARY /AIRPORT/ DRIZZLE   46  46 100 NW6       30.02S
KNOX *+        CLOUDY    48  41  76 E3        29.99R
LA PORTE +     DRIZZLE   50  47  90 SE5       30.00S
MICHIGAN CITY+ CLOUDY    48  48 100 S3        30.00R
MONTICELLO +   DRIZZLE   53  49  87 CALM      29.98F
RENSSELAER +   CLOUDY    46  46 100 NW5       30.00S FOG
VALPARAISO     LGT RAIN  46  45  96 NW6       30.00R FOG

$$

LMZ046-743>745-290800-
SOUTHERN LAKE MICHIGAN

STATION/POSITION TIME  TEMP    WIND        PRES    WAVE
                       AIR SEA DIR/SP/G            HT
                 (UTC) (F)     (DEG/KT/KT) (MB)    (FT)
BURNS HARBOR     0614   44     280/  4/  5 1016.3S
MICHIGAN CITY    0600   44     220/  6/  7   N/A

$$

INZ004-005-014>016-021>024-290800-
NORTH CENTRAL INDIANA

CITY           SKY/WX    TMP DP  RH WIND       PRES   REMARKS
GOSHEN         CLOUDY    46  38  73 E5        30.00F
LOGANSPORT +   DRIZZLE   50  46  87 E7        30.00R
PERU/GRISSOM   CLOUDY    49  48  96 E7        29.98S
ROCHESTER +    CLOUDY    50  45  81 E5        30.00S
SOUTH BEND     CLOUDY    47  38  71 SE10      30.00S
WARSAW +       CLOUDY    45  39  81 E5        30.00S

$$

INZ006>009-017-018-025>027-290800-
NORTHEAST INDIANA

CITY           SKY/WX    TMP DP  RH WIND       PRES   REMARKS
ANGOLA *+      CLOUDY    45  30  57 E5        30.00S
AUBURN +       CLOUDY    45  36  70 CALM      30.01S
FORT WAYNE     CLOUDY    45  39  79 NE6       29.99F
HUNTINGTON +   CLOUDY   N/A N/A N/A CALM      29.99S

$$

INZ028-029-035-036-043>045-051>053-290800-
WEST CENTRAL INDIANA

CITY           SKY/WX    TMP DP  RH WIND       PRES   REMARKS
CRAWFORDSVL +  CLEAR     49  49 100 CALM      29.99S
GREENCASTLE +  CLEAR     52  50  93 CALM      29.99F
LAFAYETTE      CLOUDY    54  51  90 W8        29.99R FOG
TERRE HAUTE    CLEAR     50  47  89 CALM      29.99F

$$

INZ030>032-037>040-046>048-054>057-064-065-290800-
CENTRAL INDIANA

CITY           SKY/WX    TMP DP  RH WIND       PRES   REMARKS
CP ATTERBURY + CLEAR     52  48  87 W3        29.99S
FISHERS *+     CLOUDY    52  52 100 CALM      29.98
FRANKFORT +      N/A     54  54 100 CALM      29.99F FOG
GREENWOOD *+   PTCLDY    54  50  87 W5        29.99
INDIANAPOLIS   PTCLDY    53  47  79 NW8       29.97S
-EAGLE CREEK   CLEAR     55  49  80 NW7       29.98R
KOKOMO *+      CLOUDY    48  45  87 E7        29.99S
MARION +       CLOUDY    47  44  90 CALM      30.00R
SHELBYVILLE    CLEAR     54  51  90 CALM      29.97S FOG
ZIONSVILLE +   CLOUDY    52  51  97 CALM      29.99S FOG

$$

INZ033-034-041-042-049-050-058-059-290800-
EAST CENTRAL INDIANA

CITY           SKY/WX    TMP DP  RH WIND       PRES   REMARKS
MUNCIE         CLOUDY    50  45  83 CALM      29.99S

$$

INZ060-061-067>069-081>083-085>088-290800-
SOUTHWEST INDIANA

CITY           SKY/WX    TMP DP  RH WIND       PRES   REMARKS
EVANSVILLE     CLEAR     58  51  78 N8        30.01S
HUNTINGBURG *+ CLEAR     57  48  72 N6        30.01S
WASHINGTON +   CLEAR     53  51  92 CALM      30.00F

$$

INZ062-063-066-070>080-084-089>092-290800-
SOUTH CENTRAL AND SOUTHEAST INDIANA

CITY           SKY/WX    TMP DP  RH WIND       PRES   REMARKS
BEDFORD +      CLEAR     55  54  94 CALM      29.99S
BLOOMINGTON    CLEAR     54  46  74 CALM      29.99S
MADISON *+     CLEAR     54  52  94 CALM      30.00S
NORTH VERNON +   N/A    N/A N/A N/A CALM      29.99R FOG
SEYMOUR +      CLEAR     55  50  82 CALM      29.99R

$$




USA.gov is the U.S. government's official web portal to all federal, state and local government web resources and services.